Tracking 34085 objects as of 13-May-2026
HD Live streaming from Space Station
objects crossing your sky now

STARLINK-36356

Track STARLINK-36356 now!
10-day predictions
STARLINK-36356 is classified as:


NORAD ID: 68242
Int'l Code: 2026-054L
Perigee: 481.5 km
Apogee: 483.2 km
Inclination: 53.2 °
Period: 94.1 minutes
Semi major axis: 6853 km
RCS: Unknown
Launch date: March 17, 2026
Source: United States (US)
Launch site: AIR FORCE EASTERN TEST RANGE (AFETR)
Your satellite tracking list
Your tracking list is empty




NASA's NSSDC Master Catalog

Two Line Element Set (TLE):
1 68242U 26054L   26132.90113536  .00019958  00000-0  68390-3 0  9992
2 68242  53.1605 358.6129 0001262  85.8163 274.2982 15.30211481  8828
Source of the keplerian elements: AFSPC